Location: Plum
(40.5000°N, 79.7500°W)
Time: 02:34:23
(UTC-04:00)

MOZ.5/SAFIR/RUBIN 5/SL-8 - Visible Passes

Search period start: 02 April 2015 00:00
Search period end: 12 April 2015 00:00
Orbit: 680 x 707 km, 97.8° (Epoch: 01 April)

Date Brightness Start Highest point End Pass type
(mag) Time Alt. Az. Time Alt. Az. Time Alt. Az.
02 Apr 6.6 05:01:59 10° ESE 05:05:14 19° ENE 05:08:39 10° NNE visible
02 Apr 6.8 20:14:59 10° NNW 20:18:16 18° WNW 20:21:22 10° WSW visible
03 Apr 5.1 05:40:31 10° SE 05:45:02 45° ENE 05:49:37 10° N visible
04 Apr 7.1 04:45:49 10° E 04:47:55 13° ENE 04:50:14 10° NE visible
04 Apr 3.8 06:20:16 10° S 06:25:02 71° W 06:29:49 10° NNW visible
05 Apr 5.8 05:23:30 10° SE 05:27:38 31° ENE 05:31:51 10° N visible
05 Apr 7.4 20:39:11 10° NW 20:40:35 11° WNW 20:41:44 10° WNW visible
06 Apr 4.0 06:02:46 10° SSE 06:07:32 78° ENE 06:12:20 10° N visible
07 Apr 6.5 05:06:44 10° ESE 05:10:15 21° ENE 05:13:54 10° NNE visible
07 Apr 7.0 20:20:19 10° NNW 20:23:16 16° WNW 20:26:00 10° WSW visible
08 Apr 4.8 05:45:28 10° SSE 05:50:05 52° ENE 05:54:43 10° N visible
09 Apr 7.0 04:50:22 10° E 04:52:55 15° ENE 04:55:40 10° NNE visible
10 Apr 5.6 05:28:22 10° SE 05:32:39 35° ENE 05:36:59 10° N visible
11 Apr 7.4 04:35:30 10° ENE 04:35:35 10° ENE 04:35:59 10° ENE visible
11 Apr 3.9 06:07:48 10° SSE 06:12:34 89° ENE 06:17:22 10° NNW visible
